| time (UTC) | temp F | wind direction | speed knots | gust knots | rain 1hr in | rain 24hr in | rain mn in | humidity % | barometer mb |
| 20260510070229 | 45 | 9 | 0.0 | 0.0 | 0.00 | 0.00 | 0.00 | 99 | 1013.0 |
| 20260510065723 | 45 | 10 | 0.0 | 0.0 | 0.00 | 0.00 | 0.00 | 99 | 1013.3 |
| 20260510065220 | 46 | 70 | 0.9 | 0.9 | 0.00 | 0.00 | 0.00 | 99 | 1013.4 |
| 20260510064717 | 46 | 48 | 0.0 | 0.0 | 0.00 | 0.00 | 0.00 | 99 | 1013.3 |
| 20260510064215 | 47 | 36 | 0.0 | 0.0 | 0.00 | 0.00 | 0.00 | 99 | 1013.1 |
| 20260510063711 | 47 | 24 | 0.0 | 0.0 | 0.00 | 0.00 | 0.00 | 99 | 1013.0 |
| 20260510063207 | 47 | 345 | 1.7 | 1.7 | 0.00 | 0.00 | 0.00 | 99 | 1012.9 |
| 20260510062704 | 47 | 8 | 0.0 | 0.0 | 0.00 | 0.00 | 0.00 | 99 | 1013.0 |
| 20260510062200 | 48 | 39 | 0.0 | 0.0 | 0.00 | 0.00 | 0.00 | 99 | 1012.9 |
| 20260510061655 | 47 | 15 | 0.0 | 0.0 | 0.00 | 0.00 | 0.00 | 99 | 1012.8 |
| 20260510061153 | 48 | 18 | 0.0 | 0.0 | 0.00 | 0.00 | 0.00 | 99 | 1012.3 |
| 20260510060649 | 48 | 359 | 0.0 | 0.0 | 0.00 | 0.00 | 0.00 | 99 | 1012.8 |
| 20260510060145 | 48 | 2 | 0.0 | 0.0 | 0.00 | 0.00 | 0.00 | 99 | 1012.8 |
| 20260510055642 | 48 | 25 | 0.0 | 0.0 | 0.00 | 0.00 | 0.00 | 99 | 1012.5 |
| 20260510055140 | 48 | 24 | 0.0 | 0.0 | 0.00 | 0.00 | 0.00 | 99 | 1012.8 |
| 20260510054635 | 48 | 4 | 0.0 | 0.9 | 0.00 | 0.00 | 0.00 | 99 | 1012.9 |
| 20260510054131 | 48 | 1 | 0.0 | 0.0 | 0.00 | 0.00 | 0.00 | 99 | 1012.6 |
| 20260510053630 | 48 | 35 | 0.0 | 0.0 | 0.00 | 0.00 | 0.00 | 99 | 1013.0 |
| 20260510053127 | 49 | 46 | 0.0 | 0.0 | 0.00 | 0.00 | 0.00 | 99 | 1013.0 |
| 20260510052623 | 48 | 33 | 0.0 | 0.0 | 0.00 | 0.00 | 0.00 | 99 | 1013.1 |
| 20260510052120 | 49 | 32 | 0.0 | 0.0 | 0.00 | 0.00 | 0.00 | 99 | 1013.1 |
| 20260510051615 | 49 | 23 | 0.0 | 0.0 | 0.00 | 0.00 | 0.00 | 99 | 1013.1 |
| 20260510051112 | 48 | 15 | 0.0 | 0.0 | 0.00 | 0.00 | 0.00 | 99 | 1013.3 |
| 20260510050609 | 49 | 9 | 0.0 | 0.0 | 0.00 | 0.00 | 0.00 | 99 | 1013.2 |
| 20260510050106 | 49 | 8 | 0.0 | 0.0 | 0.00 | 0.00 | 0.00 | 99 | 1013.2 |
| 20260510045604 | 49 | 8 | 0.0 | 0.0 | 0.00 | 0.00 | 0.00 | 99 | 1013.3 |
| 20260510045059 | 50 | 7 | 0.0 | 0.0 | 0.00 | 0.00 | 0.00 | 98 | 1013.1 |
| 20260510044556 | 50 | 7 | 0.0 | 0.0 | 0.00 | 0.00 | 0.00 | 98 | 1013.1 |
| 20260510044054 | 50 | 30 | 0.0 | 0.0 | 0.00 | 0.00 | 0.00 | 97 | 1013.3 |
| 20260510043549 | 50 | 51 | 0.9 | 0.9 | 0.00 | 0.00 | 0.00 | 97 | 1013.4 |
| 20260510043045 | 51 | 27 | 0.0 | 0.0 | 0.00 | 0.00 | 0.00 | 96 | 1013.3 |
| 20260510042544 | 51 | 29 | 0.0 | 0.0 | 0.00 | 0.00 | 0.00 | 96 | 1013.1 |
| 20260510042039 | 51 | 1 | 0.0 | 0.9 | 0.00 | 0.00 | 0.00 | 95 | 1013.1 |
| 20260510041537 | 51 | 13 | 0.0 | 0.0 | 0.00 | 0.00 | 0.00 | 95 | 1012.9 |
| 20260510041034 | 52 | 20 | 0.0 | 0.0 | 0.00 | 0.00 | 0.00 | 94 | 1012.9 |
| 20260510040531 | 53 | 19 | 0.0 | 0.0 | 0.00 | 0.00 | 0.00 | 94 | 1013.1 |
| 20260510040027 | 52 | 23 | 0.0 | 0.0 | 0.00 | 0.00 | 0.00 | 95 | 1013.2 |
| 20260510035523 | 52 | 13 | 0.0 | 0.0 | 0.00 | 0.00 | 0.00 | 95 | 1013.4 |
| 20260510035023 | 51 | 348 | 0.9 | 0.9 | 0.00 | 0.00 | 0.00 | 94 | 1013.4 |
| 20260510034522 | 52 | 22 | 0.0 | 0.0 | 0.00 | 0.00 | 0.00 | 94 | 1013.2 |
| 20260510034018 | 53 | 93 | 0.9 | 1.7 | 0.00 | 0.00 | 0.00 | 93 | 1013.2 |
| 20260510033513 | 53 | 90 | 0.9 | 1.7 | 0.00 | 0.00 | 0.00 | 92 | 1013.1 |
| 20260510033012 | 53 | 82 | 0.9 | 0.9 | 0.00 | 0.00 | 0.00 | 92 | 1012.9 |
| 20260510032508 | 54 | 33 | 0.0 | 0.0 | 0.00 | 0.00 | 0.00 | 92 | 1012.8 |
| 20260510032008 | 54 | 0 | 0.9 | 0.9 | 0.00 | 0.00 | 0.00 | 92 | 1012.9 |
| 20260510031504 | 54 | 343 | 1.7 | 1.7 | 0.00 | 0.00 | 0.00 | 92 | 1012.6 |
| 20260510031000 | 54 | 37 | 0.0 | 0.9 | 0.00 | 0.00 | 0.00 | 91 | 1012.9 |
| 20260510030455 | 54 | 343 | 0.9 | 0.9 | 0.00 | 0.00 | 0.00 | 90 | 1012.8 |
| 20260510025953 | 55 | 352 | 0.0 | 0.0 | 0.00 | 0.00 | 0.00 | 90 | 1012.8 |
| 20260510025450 | 55 | 6 | 0.0 | 0.9 | 0.00 | 0.00 | 0.00 | 90 | 1012.5 |
| 20260510024948 | 55 | 39 | 0.0 | 0.9 | 0.00 | 0.00 | 0.00 | 89 | 1012.3 |
| 20260510024444 | 55 | 80 | 2.6 | 2.6 | 0.00 | 0.00 | 0.00 | 89 | 1012.5 |
| 20260510023940 | 56 | 2 | 0.0 | 0.0 | 0.00 | 0.00 | 0.00 | 88 | 1012.0 |
| 20260510023436 | 56 | 25 | 0.0 | 0.0 | 0.00 | 0.00 | 0.00 | 87 | 1012.2 |
| 20260510022933 | 57 | 17 | 0.0 | 0.0 | 0.00 | 0.00 | 0.00 | 86 | 1012.3 |
| 20260510022432 | 57 | 24 | 0.0 | 0.0 | 0.00 | 0.00 | 0.00 | 86 | 1012.3 |
| 20260510021932 | 57 | 358 | 0.9 | 0.9 | 0.00 | 0.00 | 0.00 | 85 | 1012.2 |
| 20260510021430 | 57 | 58 | 0.9 | 0.9 | 0.00 | 0.00 | 0.00 | 85 | 1012.1 |
| 20260510020926 | 58 | 16 | 0.0 | 0.0 | 0.00 | 0.00 | 0.00 | 84 | 1011.7 |
| 20260510020421 | 59 | 2 | 0.9 | 0.9 | 0.00 | 0.00 | 0.00 | 83 | 1011.8 |
| 20260510015917 | 59 | 27 | 0.0 | 0.0 | 0.00 | 0.00 | 0.00 | 83 | 1011.8 |
| 20260510015413 | 59 | 3 | 0.0 | 0.0 | 0.00 | 0.00 | 0.00 | 82 | 1011.7 |
| 20260510014908 | 59 | 350 | 0.9 | 0.9 | 0.00 | 0.00 | 0.00 | 81 | 1011.8 |
| 20260510014406 | 59 | 358 | 0.0 | 0.0 | 0.00 | 0.00 | 0.00 | 81 | 1011.7 |
| 20260510013902 | 60 | 7 | 0.0 | 0.0 | 0.00 | 0.00 | 0.00 | 80 | 1011.5 |
| 20260510013357 | 60 | 355 | 0.0 | 0.9 | 0.00 | 0.00 | 0.00 | 79 | 1011.2 |
| 20260510012852 | 60 | 17 | 0.0 | 0.0 | 0.00 | 0.00 | 0.00 | 79 | 1011.3 |
| 20260510012347 | 60 | 350 | 0.0 | 0.9 | 0.00 | 0.00 | 0.00 | 79 | 1011.0 |
| 20260510011842 | 60 | 23 | 0.0 | 0.0 | 0.00 | 0.00 | 0.00 | 79 | 1011.0 |
| 20260510011338 | 60 | 66 | 0.9 | 0.9 | 0.00 | 0.00 | 0.00 | 79 | 1010.8 |
| 20260510010834 | 61 | 9 | 0.0 | 0.0 | 0.00 | 0.00 | 0.00 | 77 | 1010.9 |
| 20260510010332 | 61 | 33 | 0.0 | 0.0 | 0.00 | 0.00 | 0.00 | 76 | 1010.9 |
| 20260510005828 | 62 | 37 | 0.0 | 0.0 | 0.00 | 0.00 | 0.00 | 75 | 1010.6 |
| 20260510005325 | 62 | 0 | 0.0 | 0.0 | 0.00 | 0.00 | 0.00 | 74 | 1010.3 |
| 20260510004823 | 63 | 9 | 0.0 | 0.9 | 0.00 | 0.00 | 0.00 | 72 | 1010.4 |
| 20260510004320 | 64 | 34 | 0.0 | 0.0 | 0.00 | 0.00 | 0.00 | 71 | 1010.1 |
| 20260510003818 | 65 | 58 | 0.9 | 0.9 | 0.00 | 0.00 | 0.00 | 69 | 1009.9 |
| 20260510003314 | 65 | 1 | 0.9 | 0.9 | 0.00 | 0.00 | 0.00 | 68 | 1010.2 |
| 20260510002813 | 66 | 25 | 0.0 | 0.0 | 0.00 | 0.00 | 0.00 | 66 | 1009.9 |
| 20260510002310 | 67 | 11 | 0.0 | 0.0 | 0.00 | 0.00 | 0.00 | 64 | 1009.9 |
| 20260510001806 | 68 | 59 | 0.9 | 0.9 | 0.00 | 0.00 | 0.00 | 62 | 1009.9 |
| 20260510001305 | 69 | 47 | 0.0 | 0.0 | 0.00 | 0.00 | 0.00 | 60 | 1009.7 |
| 20260510000800 | 69 | 54 | 0.9 | 0.9 | 0.00 | 0.00 | 0.00 | 59 | 1009.4 |
| 20260510000258 | 69 | 349 | 0.9 | 0.9 | 0.00 | 0.00 | 0.00 | 57 | 1009.6 |
| 20260509235755 | 70 | 23 | 0.0 | 0.0 | 0.00 | 0.00 | 0.00 | 59 | 1009.8 |
| 20260509235252 | 70 | 19 | 0.0 | 0.0 | 0.00 | 0.00 | 0.00 | 58 | 1009.6 |
| 20260509234747 | 71 | 43 | 0.0 | 0.0 | 0.00 | 0.00 | 0.00 | 58 | 1009.6 |
| 20260509234244 | 71 | 28 | 0.0 | 0.0 | 0.00 | 0.00 | 0.00 | 57 | 1009.7 |
| 20260509233743 | 71 | 31 | 0.0 | 0.0 | 0.00 | 0.00 | 0.00 | 57 | 1009.7 |
| 20260509233240 | 71 | 357 | 0.0 | 0.9 | 0.00 | 0.00 | 0.00 | 56 | 1009.7 |
| 20260509232736 | 71 | 352 | 0.0 | 0.9 | 0.00 | 0.00 | 0.00 | 57 | 1009.4 |
| 20260509232233 | 71 | 358 | 0.9 | 0.9 | 0.00 | 0.00 | 0.00 | 57 | 1009.7 |
| 20260509231729 | 71 | 18 | 0.9 | 0.9 | 0.00 | 0.00 | 0.00 | 57 | 1009.7 |
| 20260509231227 | 71 | 55 | 1.7 | 2.6 | 0.00 | 0.00 | 0.00 | 56 | 1009.6 |
| 20260509230724 | 71 | 24 | 0.9 | 1.7 | 0.00 | 0.00 | 0.00 | 56 | 1009.5 |
| 20260509230221 | 71 | 6 | 1.7 | 1.7 | 0.00 | 0.00 | 0.00 | 55 | 1009.4 |
| 20260509225716 | 71 | 11 | 3.5 | 5.2 | 0.00 | 0.00 | 0.00 | 55 | 1009.4 |
| 20260509225212 | 72 | 40 | 0.0 | 0.9 | 0.00 | 0.00 | 0.00 | 55 | 1009.5 |
| 20260509224708 | 72 | 34 | 0.0 | 0.9 | 0.00 | 0.00 | 0.00 | 55 | 1009.5 |
| 20260509224205 | 72 | 64 | 0.9 | 0.9 | 0.00 | 0.00 | 0.00 | 55 | 1009.5 |
| 20260509223702 | 72 | 36 | 0.9 | 1.7 | 0.00 | 0.00 | 0.00 | 54 | 1009.6 |
| 20260509223159 | 73 | 41 | 1.7 | 1.7 | 0.00 | 0.00 | 0.00 | 53 | 1009.4 |
| 20260509222656 | 73 | 3 | 0.9 | 1.7 | 0.00 | 0.00 | 0.00 | 53 | 1009.6 |
| 20260509222152 | 73 | 356 | 0.9 | 1.7 | 0.00 | 0.00 | 0.00 | 53 | 1009.5 |
| 20260509221648 | 73 | 51 | 5.2 | 7.8 | 0.00 | 0.00 | 0.00 | 51 | 1009.5 |
| 20260509221143 | 73 | 359 | 3.5 | 6.1 | 0.00 | 0.00 | 0.00 | 52 | 1009.5 |
| 20260509220640 | 73 | 130 | 0.9 | 1.7 | 0.00 | 0.00 | 0.00 | 52 | 1009.5 |
| 20260509220136 | 73 | 330 | 2.6 | 5.2 | 0.00 | 0.00 | 0.00 | 51 | 1009.4 |
| 20260509215632 | 73 | 67 | 4.3 | 5.2 | 0.00 | 0.00 | 0.00 | 51 | 1009.4 |
| 20260509215129 | 73 | 23 | 2.6 | 3.5 | 0.00 | 0.00 | 0.00 | 51 | 1009.4 |
| 20260509214626 | 73 | 51 | 2.6 | 2.6 | 0.00 | 0.00 | 0.00 | 51 | 1009.5 |
| 20260509214122 | 73 | 359 | 0.9 | 1.7 | 0.00 | 0.00 | 0.00 | 52 | 1009.5 |
| 20260509213619 | 73 | 4 | 2.6 | 3.5 | 0.00 | 0.00 | 0.00 | 51 | 1009.4 |
| 20260509213115 | 73 | 66 | 1.7 | 2.6 | 0.00 | 0.00 | 0.00 | 50 | 1009.0 |
| 20260509212613 | 73 | 45 | 1.7 | 2.6 | 0.00 | 0.00 | 0.00 | 52 | 1009.2 |
| 20260509212110 | 73 | 340 | 0.9 | 1.7 | 0.00 | 0.00 | 0.00 | 51 | 1009.1 |
| 20260509211606 | 73 | 39 | 3.5 | 6.1 | 0.00 | 0.00 | 0.00 | 50 | 1009.0 |
| 20260509211103 | 73 | 71 | 1.7 | 2.6 | 0.00 | 0.00 | 0.00 | 50 | 1009.1 |
| 20260509210559 | 73 | 358 | 3.5 | 3.5 | 0.00 | 0.00 | 0.00 | 49 | 1009.4 |
| 20260509210056 | 73 | 63 | 1.7 | 1.7 | 0.00 | 0.00 | 0.00 | 50 | 1009.2 |
| 20260509205556 | 73 | 271 | 1.7 | 3.5 | 0.00 | 0.00 | 0.00 | 48 | 1009.0 |
| 20260509205051 | 73 | 343 | 1.7 | 2.6 | 0.00 | 0.00 | 0.00 | 49 | 1009.2 |
| 20260509204548 | 74 | 348 | 1.7 | 1.7 | 0.00 | 0.00 | 0.00 | 47 | 1009.0 |
| 20260509204044 | 74 | 343 | 1.7 | 1.7 | 0.00 | 0.00 | 0.00 | 48 | 1009.0 |
| 20260509203540 | 73 | 340 | 2.6 | 2.6 | 0.00 | 0.00 | 0.00 | 49 | 1009.1 |
| 20260509203039 | 73 | 319 | 2.6 | 2.6 | 0.00 | 0.00 | 0.00 | 48 | 1008.9 |
| 20260509202539 | 74 | 321 | 2.6 | 3.5 | 0.00 | 0.00 | 0.00 | 50 | 1008.9 |
| 20260509202034 | 75 | 342 | 2.6 | 3.5 | 0.00 | 0.00 | 0.00 | 53 | 1008.9 |
| 20260509201530 | 75 | 34 | 1.7 | 3.5 | 0.00 | 0.00 | 0.00 | 52 | 1008.8 |
| 20260509201028 | 75 | 325 | 2.6 | 3.5 | 0.00 | 0.00 | 0.00 | 47 | 1008.9 |
| 20260509200527 | 75 | 341 | 7.8 | 9.6 | 0.00 | 0.00 | 0.00 | 46 | 1009.2 |
| 20260509200024 | 75 | 285 | 3.5 | 7.0 | 0.00 | 0.00 | 0.00 | 49 | 1009.2 |
| 20260509195520 | 73 | 56 | 3.5 | 5.2 | 0.00 | 0.00 | 0.00 | 49 | 1008.9 |
| 20260509195019 | 75 | 42 | 1.7 | 2.6 | 0.00 | 0.00 | 0.00 | 49 | 1009.2 |
| 20260509194515 | 75 | 54 | 1.7 | 2.6 | 0.00 | 0.00 | 0.00 | 48 | 1009.2 |
| 20260509194013 | 75 | 346 | 5.2 | 7.0 | 0.00 | 0.00 | 0.00 | 48 | 1009.4 |
| 20260509193512 | 75 | 312 | 3.5 | 3.5 | 0.00 | 0.00 | 0.00 | 50 | 1009.5 |
| 20260509193010 | 75 | 76 | 4.3 | 7.0 | 0.00 | 0.00 | 0.00 | 47 | 1009.4 |
| 20260509192506 | 75 | 74 | 4.3 | 5.2 | 0.00 | 0.00 | 0.00 | 48 | 1009.6 |
| 20260509192001 | 75 | 338 | 2.6 | 5.2 | 0.00 | 0.00 | 0.00 | 48 | 1009.6 |
| 20260509191456 | 75 | 307 | 2.6 | 3.5 | 0.00 | 0.00 | 0.00 | 48 | 1009.7 |
| 20260509190952 | 74 | 69 | 3.5 | 5.2 | 0.00 | 0.00 | 0.00 | 48 | 1009.5 |
| 20260509190449 | 74 | 284 | 5.2 | 6.1 | 0.00 | 0.00 | 0.00 | 49 | 1009.4 |
| 20260509185947 | 73 | 324 | 2.6 | 3.5 | 0.00 | 0.00 | 0.00 | 50 | 1009.6 |
| 20260509185444 | 71 | 309 | 3.5 | 5.2 | 0.00 | 0.00 | 0.00 | 50 | 1009.7 |
| 20260509184941 | 71 | 331 | 3.5 | 5.2 | 0.00 | 0.00 | 0.00 | 51 | 1009.8 |
| 20260509184439 | 71 | 308 | 2.6 | 5.2 | 0.00 | 0.00 | 0.00 | 54 | 1009.9 |
| 20260509183935 | 72 | 15 | 2.6 | 2.6 | 0.00 | 0.00 | 0.00 | 54 | 1010.1 |
| 20260509183435 | 72 | 34 | 0.9 | 0.9 | 0.00 | 0.00 | 0.00 | 52 | 1010.2 |
| 20260509182932 | 73 | 17 | 2.6 | 3.5 | 0.00 | 0.00 | 0.00 | 55 | 1010.2 |
| 20260509182428 | 73 | 357 | 5.2 | 6.1 | 0.00 | 0.00 | 0.00 | 57 | 1010.2 |
| 20260509181925 | 72 | 41 | 1.7 | 1.7 | 0.00 | 0.00 | 0.00 | 59 | 1010.2 |
| 20260509181423 | 73 | 14 | 0.9 | 1.7 | 0.00 | 0.00 | 0.00 | 59 | 1010.3 |
| 20260509180920 | 71 | 339 | 1.7 | 1.7 | 0.00 | 0.00 | 0.00 | 59 | 1010.4 |
| 20260509180415 | 71 | 0 | 1.7 | 2.6 | 0.00 | 0.00 | 0.00 | 56 | 1010.3 |
| 20260509175913 | 71 | 352 | 3.5 | 3.5 | 0.00 | 0.00 | 0.00 | 55 | 1010.6 |
| 20260509175409 | 70 | 274 | 2.6 | 5.2 | 0.00 | 0.00 | 0.00 | 55 | 1010.8 |
| 20260509174905 | 70 | 66 | 1.7 | 1.7 | 0.00 | 0.00 | 0.00 | 56 | 1010.8 |
| 20260509174402 | 69 | 314 | 2.6 | 6.1 | 0.00 | 0.00 | 0.00 | 56 | 1010.7 |
| 20260509173858 | 69 | 16 | 3.5 | 5.2 | 0.00 | 0.00 | 0.00 | 57 | 1010.9 |
| 20260509173357 | 69 | 31 | 3.5 | 6.1 | 0.00 | 0.00 | 0.00 | 57 | 1011.2 |
| 20260509172854 | 69 | 324 | 2.6 | 5.2 | 0.00 | 0.00 | 0.00 | 58 | 1011.2 |
| 20260509172351 | 69 | 56 | 1.7 | 1.7 | 0.00 | 0.00 | 0.00 | 57 | 1011.0 |
| 20260509171847 | 69 | 37 | 2.6 | 3.5 | 0.00 | 0.00 | 0.00 | 56 | 1011.1 |
| 20260509171343 | 69 | 67 | 2.6 | 2.6 | 0.00 | 0.00 | 0.00 | 56 | 1011.2 |
| 20260509170840 | 69 | 24 | 1.7 | 2.6 | 0.00 | 0.00 | 0.00 | 57 | 1011.1 |
| 20260509170335 | 69 | 262 | 1.7 | 3.5 | 0.00 | 0.00 | 0.00 | 55 | 1011.2 |
| 20260509165830 | 70 | 341 | 4.3 | 6.1 | 0.00 | 0.00 | 0.00 | 59 | 1011.3 |
| 20260509165325 | 69 | 17 | 0.9 | 0.9 | 0.00 | 0.00 | 0.00 | 59 | 1011.2 |
| 20260509164821 | 69 | 29 | 1.7 | 1.7 | 0.00 | 0.00 | 0.00 | 59 | 1011.1 |
| 20260509164317 | 69 | 17 | 1.7 | 2.6 | 0.00 | 0.00 | 0.00 | 60 | 1011.1 |
| 20260509163814 | 70 | 38 | 1.7 | 2.6 | 0.00 | 0.00 | 0.00 | 58 | 1011.2 |
| 20260509163311 | 69 | 34 | 2.6 | 3.5 | 0.00 | 0.00 | 0.00 | 57 | 1011.1 |
| 20260509162810 | 69 | 54 | 2.6 | 2.6 | 0.00 | 0.00 | 0.00 | 56 | 1011.1 |
| 20260509162308 | 70 | 318 | 2.6 | 2.6 | 0.00 | 0.00 | 0.00 | 57 | 1011.1 |
| 20260509161805 | 69 | 310 | 2.6 | 3.5 | 0.00 | 0.00 | 0.00 | 58 | 1011.0 |
| 20260509161301 | 69 | 13 | 0.0 | 0.9 | 0.00 | 0.00 | 0.00 | 59 | 1011.2 |
| 20260509160756 | 68 | 49 | 1.7 | 1.7 | 0.00 | 0.00 | 0.00 | 61 | 1011.1 |
| 20260509160253 | 69 | 340 | 3.5 | 5.2 | 0.00 | 0.00 | 0.00 | 62 | 1011.5 |
| 20260509155748 | 68 | 121 | 1.7 | 2.6 | 0.00 | 0.00 | 0.00 | 63 | 1011.2 |
| 20260509155245 | 68 | 320 | 4.3 | 7.0 | 0.00 | 0.00 | 0.00 | 62 | 1011.2 |
| 20260509154741 | 68 | 81 | 0.9 | 0.9 | 0.00 | 0.00 | 0.00 | 63 | 1011.3 |
| 20260509154238 | 68 | 8 | 1.7 | 2.6 | 0.00 | 0.00 | 0.00 | 62 | 1011.4 |
| 20260509153735 | 68 | 12 | 3.5 | 3.5 | 0.00 | 0.00 | 0.00 | 62 | 1011.2 |
| 20260509153231 | 67 | 116 | 2.6 | 3.5 | 0.00 | 0.00 | 0.00 | 65 | 1011.2 |
| 20260509152728 | 68 | 51 | 3.5 | 3.5 | 0.00 | 0.00 | 0.00 | 64 | 1011.3 |
| 20260509152224 | 68 | 54 | 3.5 | 5.2 | 0.00 | 0.00 | 0.00 | 63 | 1011.0 |
| 20260509151721 | 67 | 328 | 2.6 | 3.5 | 0.00 | 0.00 | 0.00 | 64 | 1011.0 |
| 20260509151218 | 66 | 310 | 2.6 | 3.5 | 0.00 | 0.00 | 0.00 | 65 | 1011.0 |
| 20260509150716 | 66 | 86 | 2.6 | 3.5 | 0.00 | 0.00 | 0.00 | 65 | 1011.2 |
| 20260509150214 | 66 | 327 | 1.7 | 2.6 | 0.00 | 0.00 | 0.00 | 66 | 1011.3 |
| 20260509145710 | 66 | 337 | 2.6 | 3.5 | 0.00 | 0.00 | 0.00 | 66 | 1011.1 |
| 20260509145206 | 68 | 66 | 5.2 | 6.1 | 0.00 | 0.00 | 0.00 | 63 | 1011.3 |
| 20260509144702 | 68 | 67 | 1.7 | 2.6 | 0.00 | 0.00 | 0.00 | 65 | 1011.2 |
| 20260509144159 | 67 | 27 | 4.3 | 7.0 | 0.00 | 0.00 | 0.00 | 66 | 1011.4 |
| 20260509143657 | 66 | 342 | 3.5 | 6.1 | 0.00 | 0.00 | 0.00 | 67 | 1011.3 |
| 20260509143154 | 66 | 14 | 3.5 | 3.5 | 0.00 | 0.00 | 0.00 | 66 | 1011.0 |
| 20260509142649 | 65 | 47 | 1.7 | 2.6 | 0.00 | 0.00 | 0.00 | 71 | 1011.4 |
| 20260509142146 | 65 | 334 | 6.1 | 7.0 | 0.00 | 0.00 | 0.00 | 68 | 1011.4 |
| 20260509141642 | 64 | 346 | 2.6 | 2.6 | 0.00 | 0.00 | 0.00 | 70 | 1011.4 |
| 20260509141138 | 64 | 32 | 1.7 | 2.6 | 0.00 | 0.00 | 0.00 | 70 | 1011.6 |
| 20260509140636 | 63 | 81 | 1.7 | 2.6 | 0.00 | 0.00 | 0.00 | 70 | 1011.6 |
| 20260509140133 | 63 | 53 | 4.3 | 5.2 | 0.00 | 0.00 | 0.00 | 70 | 1011.9 |
| 20260509135630 | 63 | 69 | 1.7 | 2.6 | 0.00 | 0.00 | 0.00 | 70 | 1012.0 |
| 20260509135128 | 63 | 345 | 1.7 | 2.6 | 0.00 | 0.00 | 0.00 | 71 | 1012.1 |
| 20260509134625 | 62 | 326 | 2.6 | 3.5 | 0.00 | 0.00 | 0.00 | 71 | 1012.2 |
| 20260509134122 | 62 | 51 | 2.6 | 3.5 | 0.00 | 0.00 | 0.00 | 71 | 1012.5 |
| 20260509133620 | 62 | 44 | 1.7 | 2.6 | 0.00 | 0.00 | 0.00 | 72 | 1012.4 |
| 20260509133117 | 62 | 18 | 1.7 | 1.7 | 0.00 | 0.00 | 0.00 | 72 | 1012.3 |
| 20260509132615 | 61 | 36 | 1.7 | 1.7 | 0.00 | 0.00 | 0.00 | 73 | 1012.5 |
| 20260509132113 | 60 | 61 | 2.6 | 3.5 | 0.00 | 0.00 | 0.00 | 74 | 1012.4 |
| 20260509131608 | 60 | 347 | 1.7 | 2.6 | 0.00 | 0.00 | 0.00 | 76 | 1012.2 |
| 20260509131106 | 59 | 39 | 0.9 | 0.9 | 0.00 | 0.00 | 0.00 | 76 | 1012.4 |
| 20260509130601 | 59 | 4 | 1.7 | 1.7 | 0.00 | 0.00 | 0.00 | 76 | 1012.4 |
| 20260509130058 | 59 | 10 | 0.0 | 0.9 | 0.00 | 0.00 | 0.00 | 77 | 1012.4 |
| 20260509125555 | 58 | 359 | 1.7 | 1.7 | 0.00 | 0.00 | 0.00 | 76 | 1012.3 |
| 20260509125051 | 58 | 44 | 0.9 | 0.9 | 0.00 | 0.00 | 0.00 | 76 | 1012.2 |
| 20260509124548 | 58 | 6 | 0.9 | 1.7 | 0.00 | 0.00 | 0.00 | 76 | 1012.3 |
| 20260509124045 | 57 | 329 | 1.7 | 1.7 | 0.00 | 0.00 | 0.00 | 76 | 1012.3 |
| 20260509123543 | 57 | 0 | 0.0 | 0.9 | 0.00 | 0.00 | 0.00 | 77 | 1012.3 |
| 20260509123039 | 57 | 2 | 0.0 | 0.9 | 0.00 | 0.00 | 0.00 | 77 | 1012.3 |
| 20260509122535 | 57 | 358 | 1.7 | 1.7 | 0.00 | 0.00 | 0.00 | 76 | 1012.2 |
| 20260509122033 | 56 | 1 | 0.9 | 1.7 | 0.00 | 0.00 | 0.00 | 75 | 1012.4 |
| 20260509121529 | 57 | 14 | 1.7 | 2.6 | 0.00 | 0.00 | 0.00 | 75 | 1012.4 |
| 20260509121027 | 56 | 347 | 0.9 | 1.7 | 0.00 | 0.00 | 0.00 | 76 | 1012.6 |
| 20260509120525 | 56 | 28 | 0.9 | 0.9 | 0.00 | 0.00 | 0.00 | 78 | 1012.2 |
| 20260509120023 | 55 | 15 | 0.0 | 0.0 | 0.00 | 0.00 | 0.00 | 81 | 1012.1 |
| 20260509115519 | 55 | 50 | 0.0 | 0.9 | 0.00 | 0.00 | 0.00 | 81 | 1012.3 |
| 20260509115017 | 55 | 3 | 0.0 | 0.0 | 0.00 | 0.00 | 0.00 | 81 | 1012.2 |
| 20260509114515 | 55 | 0 | 0.0 | 0.0 | 0.00 | 0.00 | 0.00 | 82 | 1012.3 |
| 20260509114014 | 54 | 359 | 0.0 | 0.0 | 0.00 | 0.00 | 0.00 | 82 | 1012.5 |
| 20260509113512 | 54 | 354 | 0.9 | 0.9 | 0.00 | 0.00 | 0.00 | 82 | 1012.8 |
| 20260509113010 | 54 | 356 | 0.0 | 0.0 | 0.00 | 0.00 | 0.00 | 81 | 1012.4 |
| 20260509112506 | 53 | 356 | 0.0 | 0.9 | 0.00 | 0.00 | 0.00 | 80 | 1012.5 |
| 20260509112002 | 53 | 4 | 0.0 | 0.0 | 0.00 | 0.00 | 0.00 | 81 | 1012.3 |
| 20260509111500 | 53 | 3 | 0.0 | 0.0 | 0.00 | 0.00 | 0.00 | 82 | 1012.4 |
| 20260509110957 | 53 | 3 | 0.0 | 0.0 | 0.00 | 0.00 | 0.00 | 82 | 1012.3 |
| 20260509110453 | 53 | 1 | 0.0 | 0.9 | 0.00 | 0.00 | 0.00 | 82 | 1012.2 |
| 20260509105951 | 53 | 6 | 0.0 | 0.9 | 0.00 | 0.00 | 0.00 | 83 | 1012.4 |
| 20260509105449 | 53 | 356 | 0.9 | 0.9 | 0.00 | 0.00 | 0.00 | 82 | 1012.3 |
| 20260509104946 | 52 | 350 | 0.9 | 0.9 | 0.00 | 0.00 | 0.00 | 83 | 1012.4 |
| 20260509104443 | 52 | 1 | 0.9 | 0.9 | 0.00 | 0.00 | 0.00 | 85 | 1012.2 |
| 20260509103940 | 51 | 6 | 0.9 | 0.9 | 0.00 | 0.00 | 0.00 | 85 | 1012.5 |
| 20260509103438 | 51 | 23 | 0.0 | 0.0 | 0.00 | 0.00 | 0.00 | 86 | 1012.5 |
| 20260509102936 | 51 | 36 | 0.9 | 0.9 | 0.00 | 0.00 | 0.00 | 86 | 1012.4 |
| 20260509102433 | 51 | 17 | 0.0 | 0.0 | 0.00 | 0.00 | 0.00 | 85 | 1012.4 |
| 20260509101928 | 51 | 18 | 0.0 | 0.0 | 0.00 | 0.00 | 0.00 | 84 | 1012.4 |
| 20260509101425 | 51 | 10 | 0.0 | 0.0 | 0.00 | 0.00 | 0.00 | 83 | 1012.5 |
| 20260509100923 | 51 | 9 | 0.0 | 0.0 | 0.00 | 0.00 | 0.00 | 83 | 1012.4 |
| 20260509100420 | 51 | 9 | 0.0 | 0.0 | 0.00 | 0.00 | 0.00 | 83 | 1012.5 |
| 20260509095916 | 51 | 9 | 0.0 | 0.0 | 0.00 | 0.00 | 0.00 | 83 | 1012.5 |
| 20260509095414 | 51 | 57 | 0.9 | 0.9 | 0.00 | 0.00 | 0.00 | 83 | 1012.5 |
| 20260509094910 | 52 | 35 | 0.0 | 0.0 | 0.00 | 0.00 | 0.00 | 82 | 1012.4 |
| 20260509094407 | 52 | 42 | 0.0 | 0.0 | 0.00 | 0.00 | 0.00 | 82 | 1012.4 |
| 20260509093905 | 52 | 31 | 0.0 | 0.0 | 0.00 | 0.00 | 0.00 | 82 | 1012.5 |
| 20260509093402 | 52 | 346 | 0.0 | 0.0 | 0.00 | 0.00 | 0.00 | 80 | 1012.3 |
| 20260509092900 | 53 | 359 | 0.0 | 0.0 | 0.00 | 0.00 | 0.00 | 76 | 1012.5 |
| 20260509092357 | 53 | 358 | 0.0 | 0.0 | 0.00 | 0.00 | 0.00 | 75 | 1012.4 |
| 20260509091856 | 53 | 3 | 0.9 | 0.9 | 0.00 | 0.00 | 0.00 | 75 | 1012.5 |
| 20260509091352 | 53 | 10 | 0.0 | 0.0 | 0.00 | 0.00 | 0.00 | 75 | 1012.6 |
| 20260509090850 | 54 | 8 | 0.0 | 0.9 | 0.00 | 0.00 | 0.00 | 73 | 1012.5 |
| 20260509090347 | 54 | 5 | 0.9 | 0.9 | 0.00 | 0.00 | 0.00 | 72 | 1012.6 |
| 20260509085844 | 54 | 58 | 0.9 | 0.9 | 0.00 | 0.00 | 0.00 | 71 | 1012.6 |
| 20260509085341 | 54 | 33 | 0.0 | 0.9 | 0.00 | 0.00 | 0.00 | 70 | 1012.6 |
| 20260509084838 | 54 | 344 | 0.9 | 0.9 | 0.00 | 0.00 | 0.00 | 72 | 1012.8 |
| 20260509084335 | 54 | 39 | 0.0 | 0.0 | 0.00 | 0.00 | 0.00 | 73 | 1012.8 |
| 20260509083832 | 54 | 18 | 0.0 | 0.0 | 0.00 | 0.00 | 0.00 | 74 | 1013.0 |
| 20260509083329 | 54 | 358 | 0.0 | 0.0 | 0.00 | 0.00 | 0.00 | 73 | 1012.6 |
| 20260509082826 | 54 | 348 | 0.9 | 1.7 | 0.00 | 0.00 | 0.00 | 71 | 1012.8 |
| 20260509082322 | 54 | 11 | 0.0 | 0.0 | 0.00 | 0.00 | 0.00 | 71 | 1012.9 |
| 20260509081820 | 53 | 14 | 0.0 | 0.0 | 0.00 | 0.00 | 0.00 | 74 | 1012.6 |
| 20260509081316 | 54 | 356 | 0.0 | 0.0 | 0.00 | 0.00 | 0.00 | 75 | 1012.9 |
| 20260509080815 | 53 | 4 | 0.0 | 0.9 | 0.00 | 0.00 | 0.00 | 73 | 1012.8 |
| 20260509080312 | 53 | 357 | 0.0 | 0.9 | 0.00 | 0.00 | 0.00 | 73 | 1012.8 |
| 20260509075810 | 53 | 21 | 0.0 | 0.0 | 0.00 | 0.00 | 0.00 | 75 | 1012.9 |
| 20260509075307 | 53 | 356 | 0.9 | 0.9 | 0.00 | 0.00 | 0.00 | 76 | 1012.8 |
| 20260509074804 | 53 | 352 | 0.9 | 0.9 | 0.00 | 0.00 | 0.00 | 75 | 1012.9 |
| 20260509074302 | 53 | 356 | 0.9 | 0.9 | 0.00 | 0.00 | 0.00 | 76 | 1012.9 |
| 20260509073758 | 53 | 359 | 0.9 | 0.9 | 0.00 | 0.00 | 0.00 | 75 | 1013.0 |
| 20260509073254 | 53 | 345 | 0.9 | 0.9 | 0.00 | 0.00 | 0.00 | 76 | 1013.1 |
| 20260509072751 | 54 | 3 | 0.9 | 0.9 | 0.00 | 0.00 | 0.00 | 74 | 1013.3 |
| 20260509072248 | 54 | 354 | 0.9 | 0.9 | 0.00 | 0.00 | 0.00 | 73 | 1013.3 |
| 20260509071744 | 54 | 3 | 0.9 | 0.9 | 0.00 | 0.00 | 0.00 | 74 | 1013.4 |
| 20260509071242 | 54 | 10 | 0.0 | 0.0 | 0.00 | 0.00 | 0.00 | 74 | 1013.3 |
| 20260509070738 | 54 | 4 | 0.0 | 0.9 | 0.00 | 0.00 | 0.00 | 74 | 1013.1 |